User: anonymous   Login
Location: Fort Wayne
(41.1310°N, 85.1290°W)
Time: 16:28:25
(UTC-04:00)
Language:

Cosmos 1953 - Orbit

View from above orbital plane
View from above orbital plane
View from above satellite
View from above satellite

Ground track
Ground track

The orbit data is extracted from the following two-line orbital elements,

1 19210U 88050A   16240.30905903  .00000768  00000-0  52186-4 0  9993
2 19210  82.5197 318.2333 0013664 176.9821 183.1491 15.04901341533639
Epoch (UTC): 27 August 2016 07:25:02
Eccentricity: 0.0013664
inclination: 82.5197°
perigee height: 542 km
apogee height: 561 km
right ascension of ascending node: 318.2333°
argument of perigee: 176.9821°
revolutions per day: 15.04901341
mean anomaly at epoch: 183.1491°
orbit number at epoch: 53363

The dashed part of the orbit path shows where the satellite is in the earth's shadow,  

DLR